JST8948 VOBL-YPPH

Flight info

Callsign JST8948
Flight time 7h 45m
Altitude 37000
Route AKTIM V45 TTR G325 IDIBI/N0453F390 G325 KAT M641 DOGAR DCT DAOVO DCT 05S090E 10S093E 15S098E 20S103E 25S108E 30S112E DCT OPEGA T12 KAGMI
Aircraft A21N/M-SDE3FGHIJ3J5M1RWYZ/LB1

Departure

Time 2026-04-29 01:00
Airport Kempegowda International Airport Bengaluru (VOBL)

Arrival

Time 2026-04-29 08:45
Airport Perth International Airport (YPPH)
Time Latitude Longitude Altitude Speed Heading
2026-04-29 00:38 13.20359 77.69569 2974 ft 0 kts
2026-04-29 00:47 13.20355 77.69569 2974 ft 3 kts
2026-04-29 00:48 13.20328 77.69567 2974 ft 4 kts
2026-04-29 00:48 13.20302 77.69562 2974 ft 4 kts 19°
2026-04-29 00:48 13.20279 77.69549 2974 ft 4 kts 49°
2026-04-29 00:48 13.20272 77.69533 2974 ft 1 kts 90°
2026-04-29 00:49 13.20272 77.69529 2974 ft 0 kts 90°
2026-04-29 00:51 13.20272 77.69534 2974 ft 2 kts 90°
2026-04-29 00:51 13.20272 77.69566 2974 ft 7 kts 90°
2026-04-29 00:51 13.20272 77.69628 2974 ft 11 kts 90°
2026-04-29 00:51 13.20272 77.69720 2974 ft 15 kts 90°
2026-04-29 00:52 13.20271 77.69840 2974 ft 19 kts 91°
2026-04-29 00:52 13.20268 77.69983 2974 ft 21 kts 91°
2026-04-29 00:52 13.20267 77.70140 2974 ft 23 kts 90°
2026-04-29 00:52 13.20267 77.70293 2974 ft 14 kts 90°
2026-04-29 00:53 13.20302 77.70387 2974 ft 16 kts 24°
2026-04-29 00:53 13.20380 77.70389 2974 ft 18 kts
2026-04-29 00:53 13.20508 77.70406 2975 ft 20 kts 43°
2026-04-29 00:53 13.20528 77.70545 2973 ft 21 kts 89°
2026-04-29 00:54 13.20528 77.70701 2973 ft 23 kts 91°
2026-04-29 00:54 13.20528 77.70922 2970 ft 24 kts 90°
2026-04-29 00:54 13.20528 77.71041 2970 ft 25 kts 91°
2026-04-29 00:54 13.20521 77.71229 2972 ft 27 kts 91°
2026-04-29 00:55 13.20523 77.71428 2971 ft 29 kts 90°
2026-04-29 00:55 13.20520 77.71639 2975 ft 31 kts 89°
2026-04-29 00:55 13.20520 77.71864 2974 ft 32 kts 91°
2026-04-29 00:55 13.20515 77.72097 2974 ft 33 kts 90°
2026-04-29 00:56 13.20514 77.72313 2971 ft 26 kts 107°
2026-04-29 00:56 13.20412 77.72464 2974 ft 28 kts 131°
2026-04-29 00:56 13.20246 77.72534 2974 ft 27 kts 183°
2026-04-29 00:56 13.20052 77.72529 2974 ft 29 kts 180°
2026-04-29 00:57 13.19847 77.72527 2974 ft 30 kts 180°
2026-04-29 00:57 13.19631 77.72525 2974 ft 32 kts 180°
2026-04-29 00:57 13.19406 77.72524 2975 ft 33 kts 181°
2026-04-29 00:57 13.19245 77.72523 2978 ft 20 kts 159°
2026-04-29 00:58 13.19196 77.72646 2982 ft 19 kts 112°
2026-04-29 00:58 13.19090 77.72678 2982 ft 17 kts 179°
2026-04-29 00:58 13.18970 77.72678 2978 ft 18 kts 207°
2026-04-29 00:58 13.18943 77.72643 2977 ft 3 kts 270°
2026-04-29 00:59 13.18943 77.72617 2977 ft 5 kts 270°
2026-04-29 00:59 13.18945 77.72374 2976 ft 73 kts 270°
2026-04-29 00:59 13.18948 77.71613 2968 ft 140 kts 270°
2026-04-29 00:59 13.18959 77.70468 2976 ft 181 kts 270°
2026-04-29 01:00 13.18967 77.69185 3611 ft 178 kts 268°
2026-04-29 01:00 13.19108 77.67895 4207 ft 188 kts 277°
2026-04-29 01:00 13.19334 77.66512 4679 ft 205 kts 276°
2026-04-29 01:00 13.19559 77.64991 5159 ft 230 kts 277°
2026-04-29 01:01 13.19809 77.63271 5573 ft 256 kts 278°
2026-04-29 01:01 13.20053 77.61395 6120 ft 273 kts 275°
2026-04-29 01:01 13.20111 77.59414 6803 ft 282 kts 271°
2026-04-29 01:01 13.20122 77.57380 7560 ft 288 kts 271°
2026-04-29 01:02 13.20117 77.55291 8322 ft 296 kts 266°
2026-04-29 01:02 13.19576 77.53241 9055 ft 303 kts 242°
2026-04-29 01:02 13.18283 77.51535 9776 ft 306 kts 217°
2026-04-29 01:02 13.16444 77.50430 10319 ft 314 kts 199°
2026-04-29 01:03 13.14284 77.49880 10651 ft 328 kts 179°
2026-04-29 01:03 13.11957 77.50056 10943 ft 346 kts 171°
2026-04-29 01:03 13.09483 77.50247 11216 ft 367 kts 173°
2026-04-29 01:03 13.06865 77.50425 11492 ft 385 kts 173°
2026-04-29 01:04 13.04189 77.50616 12003 ft 393 kts 173°
2026-04-29 01:04 13.01411 77.50823 12649 ft 398 kts 173°
2026-04-29 01:04 12.98672 77.51033 13275 ft 402 kts 173°
2026-04-29 01:04 12.95864 77.51253 13875 ft 406 kts 173°
2026-04-29 01:05 12.93033 77.51475 14429 ft 409 kts 173°
2026-04-29 01:05 12.90185 77.51698 14987 ft 412 kts 173°
2026-04-29 01:05 12.87317 77.51923 15542 ft 415 kts 174°
2026-04-29 01:05 12.84432 77.52150 16094 ft 417 kts 174°
2026-04-29 01:06 12.81526 77.52378 16625 ft 420 kts 174°
2026-04-29 01:06 12.78607 77.52607 17144 ft 423 kts 175°
2026-04-29 01:06 12.75664 77.52838 17681 ft 425 kts 175°
2026-04-29 01:06 12.72702 77.53070 18200 ft 427 kts 175°
2026-04-29 01:07 12.69726 77.53303 18661 ft 430 kts 175°
2026-04-29 01:07 12.66737 77.53538 19126 ft 431 kts 175°
2026-04-29 01:07 12.63733 77.53773 19564 ft 434 kts 175°
2026-04-29 01:07 12.60716 77.54008 20012 ft 436 kts 175°
2026-04-29 01:08 12.57680 77.54245 20465 ft 438 kts 176°
2026-04-29 01:08 12.54671 77.54481 20920 ft 441 kts 176°
2026-04-29 01:08 12.51563 77.54725 21403 ft 443 kts 176°
2026-04-29 01:08 12.48516 77.54963 21877 ft 446 kts 176°
2026-04-29 01:09 12.45409 77.55205 22350 ft 449 kts 175°
2026-04-29 01:09 12.42289 77.55449 22807 ft 451 kts 175°
2026-04-29 01:09 12.39145 77.55694 23243 ft 454 kts 175°
2026-04-29 01:09 12.35996 77.55939 23629 ft 457 kts 175°
2026-04-29 01:10 12.32810 77.56189 23926 ft 459 kts 175°
2026-04-29 01:10 12.29613 77.56441 24224 ft 462 kts 176°
2026-04-29 01:10 12.26394 77.56693 24514 ft 465 kts 176°
2026-04-29 01:10 12.23155 77.56945 24818 ft 468 kts 176°
2026-04-29 01:11 12.19897 77.57200 25113 ft 471 kts 176°
2026-04-29 01:11 12.16615 77.57456 25401 ft 474 kts 176°
2026-04-29 01:11 12.13313 77.57713 25686 ft 477 kts 176°
2026-04-29 01:11 12.09997 77.58032 25957 ft 480 kts 172°
2026-04-29 01:12 12.06755 77.58874 26195 ft 484 kts 160°
2026-04-29 01:12 12.03741 77.60428 26450 ft 487 kts 147°
2026-04-29 01:12 12.01075 77.62560 26769 ft 488 kts 139°
2026-04-29 01:12 11.98510 77.64839 27110 ft 488 kts 139°
2026-04-29 01:13 11.95947 77.67116 27442 ft 489 kts 139°
2026-04-29 01:13 11.93371 77.69389 27790 ft 489 kts 139°
2026-04-29 01:13 11.90792 77.71654 28130 ft 490 kts 139°
2026-04-29 01:13 11.88239 77.73885 28482 ft 490 kts 139°
2026-04-29 01:14 11.85645 77.76150 28828 ft 491 kts 139°
2026-04-29 01:14 11.83046 77.78419 29188 ft 491 kts 139°
2026-04-29 01:14 11.80452 77.80685 29546 ft 492 kts 139°
2026-04-29 01:14 11.77850 77.82958 29884 ft 492 kts 139°
2026-04-29 01:15 11.75249 77.85226 30235 ft 491 kts 139°
2026-04-29 01:15 11.72654 77.87489 30599 ft 490 kts 139°
2026-04-29 01:15 11.70064 77.89747 30957 ft 489 kts 139°
2026-04-29 01:15 11.67477 77.92000 31321 ft 488 kts 139°
2026-04-29 01:16 11.64898 77.94245 31685 ft 487 kts 139°
2026-04-29 01:16 11.62330 77.96491 32033 ft 486 kts 139°
2026-04-29 01:16 11.59787 77.98760 32385 ft 485 kts 139°
2026-04-29 01:16 11.57259 78.01031 32754 ft 484 kts 139°
2026-04-29 01:17 11.54736 78.03291 33115 ft 482 kts 139°
2026-04-29 01:17 11.52213 78.05546 33479 ft 481 kts 139°
2026-04-29 01:17 11.49699 78.07791 33815 ft 480 kts 139°
2026-04-29 01:17 11.47189 78.10031 34113 ft 479 kts 139°
2026-04-29 01:18 11.44691 78.12258 34407 ft 477 kts 139°
2026-04-29 01:18 11.39703 78.16702 34995 ft 474 kts 140°
2026-04-29 01:18 11.37218 78.18917 35288 ft 473 kts 140°
2026-04-29 01:19 11.34740 78.21126 35562 ft 472 kts 140°
2026-04-29 01:19 11.32305 78.23293 35835 ft 471 kts 140°
2026-04-29 01:19 11.29813 78.25512 36106 ft 469 kts 140°
2026-04-29 01:19 11.27386 78.27673 36379 ft 468 kts 140°
2026-04-29 01:20 11.24936 78.29855 36634 ft 467 kts 140°
2026-04-29 01:20 11.22488 78.32033 36843 ft 467 kts 140°
2026-04-29 01:20 11.17608 78.36374 36868 ft 465 kts 140°
2026-04-29 01:21 11.12740 78.40702 36845 ft 465 kts 140°
2026-04-29 01:21 11.07867 78.45032 36827 ft 464 kts 139°
2026-04-29 01:22 11.03003 78.49355 36827 ft 463 kts 139°
2026-04-29 01:22 10.98143 78.53670 36825 ft 463 kts 139°
2026-04-29 01:23 10.93276 78.57989 36817 ft 464 kts 140°
2026-04-29 01:23 10.88409 78.62307 36816 ft 464 kts 140°
2026-04-29 01:24 10.83569 78.66599 36817 ft 464 kts 140°
2026-04-29 01:24 10.78659 78.70886 36814 ft 466 kts 144°
2026-04-29 01:25 10.75964 78.72627 36811 ft 465 kts 155°
2026-04-29 01:25 10.72963 78.73839 36819 ft 463 kts 163°
2026-04-29 01:25 10.66864 78.75712 36810 ft 456 kts 164°
2026-04-29 01:26 10.60784 78.77582 36807 ft 456 kts 164°
2026-04-29 01:26 10.54717 78.79479 36806 ft 456 kts 164°
2026-04-29 01:27 10.48644 78.81381 36811 ft 456 kts 163°
2026-04-29 01:27 10.42579 78.83281 36811 ft 456 kts 164°
2026-04-29 01:28 10.36513 78.85176 36811 ft 456 kts 163°
2026-04-29 01:28 10.30506 78.87053 36810 ft 454 kts 163°
2026-04-29 01:29 10.24468 78.88939 36811 ft 454 kts 163°
2026-04-29 01:29 10.18429 78.90826 36811 ft 454 kts 163°
2026-04-29 01:30 10.12388 78.92713 36814 ft 454 kts 163°
2026-04-29 01:30 10.06356 78.94595 36814 ft 454 kts 163°
2026-04-29 01:31 10.00317 78.96481 36811 ft 453 kts 164°
2026-04-29 01:31 9.94289 78.98360 36813 ft 452 kts 164°
2026-04-29 01:32 9.88307 79.00225 36812 ft 452 kts 164°
2026-04-29 01:32 9.82287 79.02102 36811 ft 452 kts 164°
2026-04-29 01:33 9.76262 79.03980 36817 ft 452 kts 164°
2026-04-29 01:33 9.70240 79.05853 36817 ft 452 kts 164°
2026-04-29 01:34 9.64202 79.07731 36817 ft 454 kts 163°
2026-04-29 01:34 9.58171 79.09609 36816 ft 454 kts 163°
2026-04-29 01:35 9.52185 79.11471 36817 ft 454 kts 164°
2026-04-29 01:35 9.46151 79.13364 36823 ft 453 kts 164°
2026-04-29 01:36 9.40156 79.15293 36822 ft 453 kts 163°
2026-04-29 01:36 9.34142 79.17223 36826 ft 452 kts 164°
2026-04-29 01:37 9.28138 79.19145 36825 ft 453 kts 162°
2026-04-29 01:37 9.22121 79.21071 36829 ft 452 kts 162°
2026-04-29 01:38 9.16148 79.22981 36829 ft 453 kts 162°
2026-04-29 01:38 9.10121 79.24908 36829 ft 454 kts 162°
2026-04-29 01:39 9.04100 79.26832 36835 ft 453 kts 162°
2026-04-29 01:39 8.98088 79.28753 36834 ft 453 kts 162°
2026-04-29 01:40 8.92062 79.30679 36831 ft 455 kts 162°
2026-04-29 01:40 8.86054 79.32598 36834 ft 455 kts 162°
2026-04-29 01:41 8.79998 79.34530 36834 ft 456 kts 162°
2026-04-29 01:41 8.73951 79.36472 36834 ft 456 kts 161°
2026-04-29 01:42 8.67985 79.38648 36834 ft 456 kts 160°
2026-04-29 01:42 8.62028 79.40846 36835 ft 456 kts 160°
2026-04-29 01:43 8.57072 79.42672 36838 ft 456 kts 160°
2026-04-29 01:43 8.51159 79.44847 36837 ft 451 kts 160°
2026-04-29 01:44 8.45284 79.47005 36837 ft 448 kts 160°
2026-04-29 01:44 8.39432 79.49156 36836 ft 449 kts 160°
2026-04-29 01:45 8.33593 79.51302 36844 ft 447 kts 160°
2026-04-29 01:45 8.27735 79.53457 36847 ft 446 kts 160°
2026-04-29 01:46 8.21904 79.55600 36846 ft 445 kts 160°
2026-04-29 01:46 8.16063 79.57744 36851 ft 449 kts 160°
2026-04-29 01:47 8.10186 79.59901 36852 ft 448 kts 160°
2026-04-29 01:47 8.04330 79.62052 36850 ft 448 kts 160°
2026-04-29 01:48 7.98460 79.64207 36852 ft 451 kts 160°
2026-04-29 01:48 7.92517 79.66105 36852 ft 451 kts 165°
2026-04-29 01:49 7.86474 79.67743 36852 ft 448 kts 165°
2026-04-29 01:49 7.80432 79.69378 36853 ft 448 kts 165°
2026-04-29 01:50 7.74418 79.71010 36854 ft 447 kts 165°
2026-04-29 01:50 7.68408 79.72646 36856 ft 450 kts 165°
2026-04-29 01:51 7.62377 79.74286 36859 ft 449 kts 165°
2026-04-29 01:51 7.56331 79.75931 36860 ft 451 kts 165°
2026-04-29 01:52 7.50290 79.77571 36861 ft 448 kts 165°
2026-04-29 01:52 7.44255 79.79214 36860 ft 449 kts 165°
2026-04-29 01:53 7.38230 79.80850 36854 ft 450 kts 165°
2026-04-29 01:53 7.32210 79.82486 36852 ft 452 kts 165°
2026-04-29 01:54 7.26142 79.84135 36846 ft 452 kts 165°
2026-04-29 01:54 7.20067 79.85793 36845 ft 452 kts 164°
2026-04-29 01:55 7.14430 79.88543 36844 ft 454 kts 143°
2026-04-29 01:55 7.09790 79.92844 36850 ft 454 kts 136°
2026-04-29 01:56 7.05249 79.97278 36850 ft 454 kts 136°
2026-04-29 01:56 7.00692 80.01669 36861 ft 453 kts 136°
2026-04-29 01:57 6.96129 80.06050 36863 ft 454 kts 136°
2026-04-29 01:57 6.91557 80.10437 36864 ft 455 kts 136°
2026-04-29 01:58 6.87009 80.14803 36870 ft 453 kts 136°
2026-04-29 01:58 6.82430 80.19193 36884 ft 454 kts 136°
2026-04-29 01:59 6.77859 80.23578 36892 ft 455 kts 136°
2026-04-29 01:59 6.73279 80.27968 36893 ft 454 kts 136°
2026-04-29 02:00 6.68705 80.32353 36910 ft 454 kts 136°
2026-04-29 02:00 6.64133 80.36732 36911 ft 453 kts 136°
2026-04-29 02:01 6.59603 80.41070 36907 ft 452 kts 136°
2026-04-29 02:01 6.55033 80.45450 36907 ft 454 kts 136°
2026-04-29 02:02 6.50459 80.49833 36917 ft 454 kts 136°
2026-04-29 02:02 6.45885 80.54211 36916 ft 453 kts 136°
2026-04-29 02:03 6.41305 80.58574 36905 ft 453 kts 138°
2026-04-29 02:03 6.36382 80.62517 36906 ft 452 kts 142°
2026-04-29 02:04 6.31408 80.66370 36905 ft 451 kts 142°
2026-04-29 02:04 6.26436 80.70229 36897 ft 451 kts 142°
2026-04-29 02:05 6.21463 80.74091 36897 ft 451 kts 142°
2026-04-29 02:05 6.16500 80.77946 36893 ft 451 kts 142°
2026-04-29 02:06 6.11561 80.81783 36887 ft 451 kts 142°
2026-04-29 02:06 6.06587 80.85643 36887 ft 451 kts 142°
2026-04-29 02:07 6.01779 80.89698 36887 ft 451 kts 139°
2026-04-29 02:07 5.97055 80.93845 36883 ft 450 kts 139°
2026-04-29 02:08 5.92341 80.97981 36882 ft 450 kts 139°
2026-04-29 02:08 5.87622 81.02118 36882 ft 450 kts 139°
2026-04-29 02:09 5.82911 81.06251 36882 ft 450 kts 139°
2026-04-29 02:09 5.78186 81.10391 36882 ft 450 kts 139°
2026-04-29 02:10 5.73473 81.14522 36882 ft 450 kts 139°
2026-04-29 02:10 5.68787 81.18631 36877 ft 450 kts 139°
2026-04-29 02:11 5.64071 81.22759 36876 ft 450 kts 139°
2026-04-29 02:11 5.59350 81.26895 36876 ft 450 kts 139°
2026-04-29 02:12 5.54630 81.31028 36875 ft 451 kts 139°
2026-04-29 02:12 5.49902 81.35165 36877 ft 450 kts 139°
2026-04-29 02:13 5.45188 81.39291 36876 ft 448 kts 139°
2026-04-29 02:13 5.40464 81.43425 36876 ft 450 kts 139°
2026-04-29 02:14 5.35740 81.47557 36875 ft 451 kts 139°
2026-04-29 02:14 5.31006 81.51699 36876 ft 450 kts 139°
2026-04-29 02:15 5.26283 81.55829 36877 ft 451 kts 139°
2026-04-29 02:15 5.21590 81.59931 36876 ft 448 kts 138°
2026-04-29 02:16 5.16873 81.64055 36876 ft 449 kts 138°
2026-04-29 02:16 5.12152 81.68180 36878 ft 449 kts 139°
2026-04-29 02:17 5.07448 81.72289 36875 ft 449 kts 139°
2026-04-29 02:17 5.02737 81.76403 36877 ft 449 kts 139°
2026-04-29 02:18 4.98035 81.80513 36875 ft 449 kts 139°
2026-04-29 02:18 4.93323 81.84627 36876 ft 447 kts 139°
2026-04-29 02:19 4.88634 81.88719 36876 ft 447 kts 139°
2026-04-29 02:19 4.83964 81.92795 36876 ft 448 kts 139°
2026-04-29 02:20 4.79264 81.96896 36876 ft 448 kts 139°
2026-04-29 02:20 4.74563 82.00998 36876 ft 448 kts 139°
2026-04-29 02:21 4.69867 82.05096 36876 ft 448 kts 139°
2026-04-29 02:21 4.65167 82.09195 36876 ft 448 kts 139°
2026-04-29 02:22 4.60471 82.13292 36875 ft 447 kts 139°
2026-04-29 02:22 4.55773 82.17387 36876 ft 448 kts 139°
2026-04-29 02:23 4.51104 82.21456 36877 ft 447 kts 139°
2026-04-29 02:23 4.46407 82.25550 36876 ft 447 kts 139°
2026-04-29 02:24 4.41719 82.29636 36876 ft 447 kts 139°
2026-04-29 02:25 4.34682 82.35767 36875 ft 447 kts 139°
2026-04-29 02:25 4.29989 82.39855 36881 ft 447 kts 139°
2026-04-29 02:26 4.25310 82.43929 36877 ft 444 kts 138°
2026-04-29 02:26 4.20643 82.47995 36876 ft 445 kts 138°
2026-04-29 02:27 4.15971 82.52061 36875 ft 445 kts 138°
2026-04-29 02:27 4.11303 82.56124 36876 ft 445 kts 138°
2026-04-29 02:28 4.06659 82.60166 36876 ft 445 kts 138°
2026-04-29 02:28 4.01985 82.64233 36876 ft 445 kts 138°
2026-04-29 02:29 3.97316 82.68294 36876 ft 445 kts 138°
2026-04-29 02:29 3.92642 82.72361 36876 ft 444 kts 138°
2026-04-29 02:30 3.87975 82.76421 36874 ft 444 kts 138°
2026-04-29 02:30 3.84092 82.79796 36876 ft 444 kts 138°
2026-04-29 02:31 3.78638 82.84539 36880 ft 444 kts 138°
2026-04-29 02:31 3.74761 82.87910 36876 ft 444 kts 138°
2026-04-29 02:32 3.70095 82.91965 36876 ft 444 kts 138°
2026-04-29 02:32 3.65431 82.96019 36876 ft 444 kts 138°
2026-04-29 02:33 3.60795 83.00050 36876 ft 444 kts 138°
2026-04-29 02:33 3.56088 83.04057 36876 ft 444 kts 139°
2026-04-29 02:34 3.51350 83.08022 36875 ft 444 kts 139°
2026-04-29 02:34 3.46604 83.11992 36876 ft 444 kts 139°
2026-04-29 02:35 3.41864 83.15956 36875 ft 444 kts 139°
2026-04-29 02:35 3.37121 83.19921 36876 ft 444 kts 139°
2026-04-29 02:36 3.32371 83.23895 36876 ft 444 kts 139°
2026-04-29 02:36 3.27624 83.27867 36876 ft 444 kts 139°
2026-04-29 02:37 3.22880 83.31833 36876 ft 444 kts 139°
2026-04-29 02:37 3.18134 83.35803 36876 ft 445 kts 139°
2026-04-29 02:38 3.13408 83.39753 36874 ft 445 kts 139°
2026-04-29 02:38 3.08662 83.43719 36876 ft 445 kts 139°
2026-04-29 02:39 3.03908 83.47687 36879 ft 444 kts 139°
2026-04-29 02:39 2.99160 83.51654 36883 ft 445 kts 139°
2026-04-29 02:40 2.94407 83.55625 36880 ft 446 kts 139°
2026-04-29 02:40 2.89635 83.59608 36882 ft 446 kts 139°
2026-04-29 02:41 2.84868 83.63590 36881 ft 446 kts 139°
2026-04-29 02:41 2.80135 83.67548 36882 ft 446 kts 139°
2026-04-29 02:42 2.75365 83.71533 36881 ft 446 kts 139°
2026-04-29 02:42 2.70598 83.75513 36882 ft 446 kts 139°
2026-04-29 02:43 2.65831 83.79494 36884 ft 446 kts 139°
2026-04-29 02:43 2.61087 83.83454 36881 ft 447 kts 139°
2026-04-29 02:44 2.56312 83.87439 36881 ft 447 kts 139°
2026-04-29 02:44 2.51540 83.91420 36878 ft 447 kts 139°
2026-04-29 02:45 2.46744 83.95423 36882 ft 449 kts 139°
2026-04-29 02:45 2.41944 83.99431 36882 ft 450 kts 139°
2026-04-29 02:46 2.37138 84.03443 36882 ft 450 kts 139°
2026-04-29 02:46 2.32337 84.07449 36882 ft 450 kts 139°
2026-04-29 02:47 2.27527 84.11455 36882 ft 450 kts 139°
2026-04-29 02:47 2.22755 84.15432 36882 ft 449 kts 139°
2026-04-29 02:48 2.17953 84.19436 36882 ft 449 kts 139°
2026-04-29 02:48 2.13152 84.23443 36882 ft 450 kts 139°
2026-04-29 02:49 2.08343 84.27452 36877 ft 450 kts 139°
2026-04-29 02:49 2.03523 84.31470 36879 ft 450 kts 139°
2026-04-29 02:50 1.98737 84.35461 36879 ft 451 kts 139°
2026-04-29 02:50 1.93923 84.39472 36875 ft 451 kts 139°
2026-04-29 02:51 1.89109 84.43487 36875 ft 450 kts 139°
2026-04-29 02:51 1.84317 84.47482 36877 ft 449 kts 139°
2026-04-29 02:52 1.79519 84.51480 36876 ft 449 kts 139°
2026-04-29 02:52 1.74726 84.55475 36875 ft 449 kts 139°
2026-04-29 02:53 1.69927 84.59475 36876 ft 449 kts 139°
2026-04-29 02:53 1.65137 84.63469 36876 ft 449 kts 139°
2026-04-29 02:54 1.60341 84.67466 36877 ft 449 kts 139°
2026-04-29 02:54 1.55545 84.71460 36875 ft 448 kts 139°
2026-04-29 02:55 1.50754 84.75454 36874 ft 448 kts 139°
2026-04-29 02:55 1.45968 84.79440 36873 ft 448 kts 139°
2026-04-29 02:56 1.41214 84.83402 36874 ft 448 kts 139°
2026-04-29 02:56 1.36429 84.87385 36875 ft 448 kts 139°
2026-04-29 02:57 1.31646 84.91370 36875 ft 448 kts 139°
2026-04-29 02:57 1.26867 84.95351 36876 ft 448 kts 139°
2026-04-29 02:58 1.22082 84.99335 36875 ft 448 kts 139°
2026-04-29 02:58 1.17298 85.03321 36876 ft 448 kts 139°
2026-04-29 02:59 1.12510 85.07308 36877 ft 449 kts 139°
2026-04-29 02:59 1.07718 85.11297 36876 ft 448 kts 139°
2026-04-29 03:00 1.03003 85.15374 36876 ft 448 kts 136°
2026-04-29 03:00 0.98396 85.19563 36880 ft 448 kts 136°
2026-04-29 03:01 0.93785 85.23752 36877 ft 448 kts 136°
2026-04-29 03:01 0.89200 85.27919 36876 ft 448 kts 136°
2026-04-29 03:02 0.84580 85.32115 36876 ft 448 kts 136°
2026-04-29 03:02 0.79965 85.36306 36876 ft 448 kts 136°
2026-04-29 03:03 0.75352 85.40496 36877 ft 447 kts 136°
2026-04-29 03:03 0.70783 85.44647 36875 ft 447 kts 136°
2026-04-29 03:04 0.66175 85.48831 36875 ft 448 kts 136°
2026-04-29 03:04 0.61563 85.53018 36876 ft 448 kts 136°
2026-04-29 03:05 0.56956 85.57203 36875 ft 448 kts 136°
2026-04-29 03:05 0.52347 85.61389 36875 ft 448 kts 136°
2026-04-29 03:06 0.47733 85.65580 36876 ft 448 kts 136°
2026-04-29 03:06 0.43122 85.69764 36876 ft 448 kts 136°
2026-04-29 03:07 0.38511 85.73950 36877 ft 448 kts 136°
2026-04-29 03:07 0.33902 85.78138 36875 ft 448 kts 136°
2026-04-29 03:08 0.29312 85.82305 36875 ft 448 kts 136°
2026-04-29 03:08 0.24702 85.86492 36877 ft 448 kts 136°
2026-04-29 03:09 0.20091 85.90676 36875 ft 448 kts 136°
2026-04-29 03:09 0.15477 85.94867 36876 ft 448 kts 136°
2026-04-29 03:10 0.10864 85.99054 36875 ft 448 kts 136°
2026-04-29 03:10 0.06269 86.03223 36876 ft 448 kts 136°
2026-04-29 03:11 0.01654 86.07412 36875 ft 448 kts 136°
2026-04-29 03:11 -0.02973 86.11612 36876 ft 450 kts 136°
2026-04-29 03:12 -0.07606 86.15815 36875 ft 450 kts 136°
2026-04-29 03:12 -0.12239 86.20018 36875 ft 448 kts 135°
2026-04-29 03:13 -0.16850 86.24203 36877 ft 448 kts 135°
2026-04-29 03:13 -0.21464 86.28393 36876 ft 448 kts 135°
2026-04-29 03:14 -0.26082 86.32587 36875 ft 448 kts 135°
2026-04-29 03:14 -0.30694 86.36774 36881 ft 448 kts 136°
2026-04-29 03:15 -0.35346 86.40861 36881 ft 448 kts 136°
2026-04-29 03:15 -0.40037 86.44965 36883 ft 448 kts 136°
2026-04-29 03:16 -0.44732 86.49068 36882 ft 448 kts 136°
2026-04-29 03:16 -0.49419 86.53166 36882 ft 448 kts 136°
2026-04-29 03:17 -0.54106 86.57265 36882 ft 448 kts 136°
2026-04-29 03:17 -0.58786 86.61360 36882 ft 447 kts 136°
2026-04-29 03:18 -0.63463 86.65453 36882 ft 447 kts 136°
2026-04-29 03:18 -0.68112 86.69520 36881 ft 447 kts 136°
2026-04-29 03:19 -0.72792 86.73613 36883 ft 447 kts 136°
2026-04-29 03:19 -0.77470 86.77707 36882 ft 447 kts 136°
2026-04-29 03:20 -0.82150 86.81803 36883 ft 447 kts 136°
2026-04-29 03:20 -0.86039 86.85205 36884 ft 447 kts 136°
2026-04-29 03:21 -0.90716 86.89296 36885 ft 446 kts 136°
2026-04-29 03:21 -0.96146 86.94050 36884 ft 446 kts 136°
2026-04-29 03:22 -1.00037 86.97457 36885 ft 447 kts 136°
2026-04-29 03:22 -1.04718 87.01554 36884 ft 447 kts 136°
2026-04-29 03:23 -1.09399 87.05648 36885 ft 447 kts 136°
2026-04-29 03:23 -1.14081 87.09746 36885 ft 447 kts 136°
2026-04-29 03:24 -1.18760 87.13846 36885 ft 448 kts 136°
2026-04-29 03:24 -1.23449 87.17951 36888 ft 447 kts 136°
2026-04-29 03:25 -1.28129 87.22049 36887 ft 447 kts 136°
2026-04-29 03:25 -1.32805 87.26141 36888 ft 447 kts 136°
2026-04-29 03:26 -1.37481 87.30235 36890 ft 447 kts 136°
2026-04-29 03:26 -1.42126 87.34303 36889 ft 447 kts 136°
2026-04-29 03:27 -1.46804 87.38400 36888 ft 447 kts 136°
2026-04-29 03:27 -1.51487 87.42501 36888 ft 447 kts 136°
2026-04-29 03:28 -1.56180 87.46611 36887 ft 449 kts 136°
2026-04-29 03:28 -1.60882 87.50725 36887 ft 449 kts 136°
2026-04-29 03:29 -1.65581 87.54841 36887 ft 449 kts 136°
2026-04-29 03:29 -1.70287 87.58963 36888 ft 450 kts 137°
2026-04-29 03:30 -1.74967 87.63059 36887 ft 450 kts 137°
2026-04-29 03:30 -1.79676 87.67184 36888 ft 450 kts 136°
2026-04-29 03:31 -1.86737 87.73371 36887 ft 448 kts 136°
2026-04-29 03:31 -1.91433 87.77485 36888 ft 448 kts 137°
2026-04-29 03:32 -1.96127 87.81598 36888 ft 449 kts 137°
2026-04-29 03:32 -2.00823 87.85712 36891 ft 449 kts 137°
2026-04-29 03:33 -2.05581 87.89769 36891 ft 449 kts 138°
2026-04-29 03:33 -2.10316 87.93795 36890 ft 449 kts 137°
2026-04-29 03:34 -2.15068 87.97854 36891 ft 449 kts 137°
2026-04-29 03:34 -2.19828 88.01920 36891 ft 449 kts 137°
2026-04-29 03:35 -2.24552 88.05957 36891 ft 449 kts 137°
2026-04-29 03:35 -2.29305 88.10018 36891 ft 449 kts 138°
2026-04-29 03:36 -2.34065 88.14086 36891 ft 450 kts 138°
2026-04-29 03:36 -2.38826 88.18153 36890 ft 450 kts 138°
2026-04-29 03:37 -2.43592 88.22227 36891 ft 450 kts 138°
2026-04-29 03:37 -2.48356 88.26300 36891 ft 450 kts 138°
2026-04-29 03:38 -2.53122 88.30371 36892 ft 450 kts 138°
2026-04-29 03:38 -2.57857 88.34418 36888 ft 450 kts 138°
2026-04-29 03:39 -2.62624 88.38492 36890 ft 450 kts 138°
2026-04-29 03:39 -2.67392 88.42569 36890 ft 450 kts 138°
2026-04-29 03:40 -2.72159 88.46649 36890 ft 451 kts 138°
2026-04-29 03:40 -2.76883 88.50690 36890 ft 450 kts 139°
2026-04-29 03:41 -2.81639 88.54756 36891 ft 449 kts 138°
2026-04-29 03:41 -2.86385 88.58814 36889 ft 449 kts 139°
2026-04-29 03:42 -2.91365 88.62601 36891 ft 449 kts 142°
2026-04-29 03:42 -2.96385 88.66324 36891 ft 449 kts 142°
2026-04-29 03:43 -3.01414 88.70053 36890 ft 449 kts 142°
2026-04-29 03:43 -3.06436 88.73782 36889 ft 449 kts 142°
2026-04-29 03:44 -3.11438 88.77496 36890 ft 448 kts 142°
2026-04-29 03:44 -3.16409 88.81187 36890 ft 448 kts 142°
2026-04-29 03:45 -3.21415 88.84901 36890 ft 447 kts 142°
2026-04-29 03:45 -3.26414 88.88612 36890 ft 446 kts 143°
2026-04-29 03:46 -3.31403 88.92314 36890 ft 446 kts 143°
2026-04-29 03:46 -3.36390 88.96015 36890 ft 446 kts 143°
2026-04-29 03:47 -3.41377 88.99719 36891 ft 446 kts 143°
2026-04-29 03:47 -3.46359 89.03417 36891 ft 446 kts 143°
2026-04-29 03:48 -3.51313 89.07099 36891 ft 446 kts 143°
2026-04-29 03:48 -3.56304 89.10805 36891 ft 447 kts 143°
2026-04-29 03:49 -3.61306 89.14521 36891 ft 449 kts 143°
2026-04-29 03:49 -3.66312 89.18241 36890 ft 448 kts 143°
2026-04-29 03:50 -3.71341 89.21978 36892 ft 450 kts 143°
2026-04-29 03:50 -3.76361 89.25710 36891 ft 449 kts 143°
2026-04-29 03:51 -3.81375 89.29435 36889 ft 449 kts 143°
2026-04-29 03:51 -3.86400 89.33173 36886 ft 452 kts 143°
2026-04-29 03:52 -3.91451 89.36929 36889 ft 453 kts 143°
2026-04-29 03:52 -3.96475 89.40663 36888 ft 452 kts 143°
2026-04-29 03:53 -4.01509 89.44407 36883 ft 451 kts 143°
2026-04-29 03:53 -4.06550 89.48160 36884 ft 452 kts 143°
2026-04-29 03:54 -4.11599 89.51914 36885 ft 449 kts 143°
2026-04-29 03:54 -4.16606 89.55641 36884 ft 449 kts 143°
2026-04-29 03:55 -4.21625 89.59379 36884 ft 449 kts 143°
2026-04-29 03:55 -4.26624 89.63103 36885 ft 446 kts 143°
2026-04-29 03:56 -4.31585 89.66795 36889 ft 446 kts 143°
2026-04-29 03:56 -4.36592 89.70522 36887 ft 450 kts 143°
2026-04-29 03:57 -4.41623 89.74263 36887 ft 451 kts 143°
2026-04-29 03:57 -4.46655 89.78012 36887 ft 451 kts 143°
2026-04-29 03:58 -4.51690 89.81762 36888 ft 450 kts 143°
2026-04-29 03:58 -4.56680 89.85482 36887 ft 450 kts 143°
2026-04-29 03:59 -4.61707 89.89227 36889 ft 449 kts 143°
2026-04-29 03:59 -4.66723 89.92965 36888 ft 449 kts 143°
2026-04-29 04:00 -4.71716 89.96688 36889 ft 445 kts 143°
2026-04-29 04:00 -4.76708 90.00408 36888 ft 448 kts 143°
2026-04-29 04:01 -4.81724 90.04150 36889 ft 450 kts 143°
2026-04-29 04:01 -4.86716 90.07874 36891 ft 449 kts 143°
2026-04-29 04:02 -4.91702 90.11595 36889 ft 445 kts 143°
2026-04-29 04:02 -4.96686 90.15313 36890 ft 447 kts 143°
2026-04-29 04:03 -5.01663 90.19027 36885 ft 445 kts 143°
2026-04-29 04:03 -5.06639 90.22745 36887 ft 449 kts 143°
2026-04-29 04:04 -5.11645 90.26483 36889 ft 449 kts 143°
2026-04-29 04:04 -5.16665 90.30229 36891 ft 449 kts 143°
2026-04-29 04:05 -5.21646 90.33950 36885 ft 445 kts 143°
2026-04-29 04:05 -5.26625 90.37671 36887 ft 448 kts 143°
2026-04-29 04:06 -5.31589 90.41380 36890 ft 447 kts 142°
2026-04-29 04:06 -5.36574 90.45106 36889 ft 447 kts 142°
2026-04-29 04:07 -5.41558 90.48833 36891 ft 447 kts 142°
2026-04-29 04:07 -5.46543 90.52560 36891 ft 446 kts 142°
2026-04-29 04:08 -5.51520 90.56284 36890 ft 446 kts 142°
2026-04-29 04:08 -5.56498 90.60011 36888 ft 448 kts 142°
2026-04-29 04:09 -5.61509 90.63760 36892 ft 449 kts 142°
2026-04-29 04:09 -5.66520 90.67509 36890 ft 450 kts 143°
2026-04-29 04:10 -5.71497 90.71233 36890 ft 446 kts 142°
2026-04-29 04:10 -5.76483 90.74964 36891 ft 446 kts 142°
2026-04-29 04:11 -5.81473 90.78702 36890 ft 450 kts 142°
2026-04-29 04:11 -5.85646 90.81829 36892 ft 449 kts 142°
2026-04-29 04:12 -5.90668 90.85587 36891 ft 451 kts 142°
2026-04-29 04:12 -5.95705 90.89359 36893 ft 451 kts 142°
2026-04-29 04:13 -6.00745 90.93137 36891 ft 452 kts 142°
2026-04-29 04:13 -6.05790 90.96914 36890 ft 452 kts 142°
2026-04-29 04:14 -6.10827 91.00683 36891 ft 451 kts 142°
2026-04-29 04:14 -6.15849 91.04450 36890 ft 451 kts 142°
2026-04-29 04:15 -6.20831 91.08190 36894 ft 449 kts 142°
2026-04-29 04:15 -6.25839 91.11959 36898 ft 449 kts 142°
2026-04-29 04:16 -6.30864 91.15734 36896 ft 452 kts 142°
2026-04-29 04:16 -6.35904 91.19519 36897 ft 453 kts 142°
2026-04-29 04:17 -6.40940 91.23301 36896 ft 451 kts 142°
2026-04-29 04:17 -6.45975 91.27082 36897 ft 451 kts 142°
2026-04-29 04:18 -6.51008 91.30864 36896 ft 452 kts 142°
2026-04-29 04:18 -6.56046 91.34652 36899 ft 452 kts 142°
2026-04-29 04:19 -6.61088 91.38442 36899 ft 452 kts 141°
2026-04-29 04:19 -6.66123 91.42228 36898 ft 453 kts 142°
2026-04-29 04:20 -6.71164 91.46020 36899 ft 453 kts 142°
2026-04-29 04:20 -6.76168 91.49789 36898 ft 452 kts 142°
2026-04-29 04:21 -6.81206 91.53579 36898 ft 453 kts 142°
2026-04-29 04:21 -6.86263 91.57385 36904 ft 453 kts 142°
2026-04-29 04:22 -6.91314 91.61188 36902 ft 453 kts 141°
2026-04-29 04:22 -6.96361 91.64992 36901 ft 453 kts 142°
2026-04-29 04:23 -7.01409 91.68795 36904 ft 453 kts 142°
2026-04-29 04:23 -7.06464 91.72603 36904 ft 453 kts 141°
2026-04-29 04:24 -7.11513 91.76410 36902 ft 453 kts 141°
2026-04-29 04:24 -7.16557 91.80214 36906 ft 453 kts 141°
2026-04-29 04:25 -7.21570 91.83995 36906 ft 453 kts 141°
2026-04-29 04:25 -7.26619 91.87803 36905 ft 453 kts 141°
2026-04-29 04:26 -7.31665 91.91610 36900 ft 453 kts 141°
2026-04-29 04:26 -7.36720 91.95427 36903 ft 455 kts 141°
2026-04-29 04:27 -7.41795 91.99260 36906 ft 455 kts 141°
2026-04-29 04:27 -7.46863 92.03088 36904 ft 455 kts 141°
2026-04-29 04:28 -7.51928 92.06915 36904 ft 455 kts 141°
2026-04-29 04:28 -7.57003 92.10751 36906 ft 455 kts 141°
2026-04-29 04:29 -7.62065 92.14580 36907 ft 455 kts 141°
2026-04-29 04:29 -7.67098 92.18385 36909 ft 455 kts 141°
2026-04-29 04:30 -7.72164 92.22217 36911 ft 455 kts 141°
2026-04-29 04:31 -7.79755 92.27961 36912 ft 455 kts 141°
2026-04-29 04:31 -7.84820 92.31795 36912 ft 456 kts 141°
2026-04-29 04:32 -7.89894 92.35640 36913 ft 456 kts 141°
2026-04-29 04:32 -7.94970 92.39485 36913 ft 456 kts 141°
2026-04-29 04:33 -8.00014 92.43307 36914 ft 456 kts 141°
2026-04-29 04:33 -8.05091 92.47157 36915 ft 456 kts 141°
2026-04-29 04:34 -8.10170 92.51006 36915 ft 456 kts 141°
2026-04-29 04:34 -8.15254 92.54862 36915 ft 456 kts 141°
2026-04-29 04:35 -8.20301 92.58691 36919 ft 456 kts 141°
2026-04-29 04:35 -8.25380 92.62546 36915 ft 456 kts 141°
2026-04-29 04:36 -8.30460 92.66404 36915 ft 456 kts 141°
2026-04-29 04:36 -8.35536 92.70261 36916 ft 457 kts 141°
2026-04-29 04:37 -8.40619 92.74122 36917 ft 457 kts 141°
2026-04-29 04:37 -8.45697 92.77980 36912 ft 457 kts 141°
2026-04-29 04:38 -8.50776 92.81842 36920 ft 457 kts 141°
2026-04-29 04:38 -8.55854 92.85704 36922 ft 457 kts 141°
2026-04-29 04:39 -8.60932 92.89568 36921 ft 457 kts 141°
2026-04-29 04:39 -8.66011 92.93432 36922 ft 457 kts 141°
2026-04-29 04:40 -8.71086 92.97298 36918 ft 457 kts 141°
2026-04-29 04:40 -8.76166 93.01165 36920 ft 457 kts 141°
2026-04-29 04:41 -8.81219 93.05016 36920 ft 457 kts 141°
2026-04-29 04:41 -8.86303 93.08890 36921 ft 457 kts 141°
2026-04-29 04:42 -8.91382 93.12762 36921 ft 457 kts 141°
2026-04-29 04:42 -8.96463 93.16638 36922 ft 457 kts 141°
2026-04-29 04:43 -9.01542 93.20513 36923 ft 457 kts 141°
2026-04-29 04:43 -9.06623 93.24390 36924 ft 457 kts 141°
2026-04-29 04:44 -9.11693 93.28262 36927 ft 456 kts 141°
2026-04-29 04:44 -9.16760 93.32130 36927 ft 456 kts 142°
2026-04-29 04:45 -9.21825 93.36002 36928 ft 456 kts 141°
2026-04-29 04:45 -9.26890 93.39872 36928 ft 456 kts 141°
2026-04-29 04:46 -9.31954 93.43745 36928 ft 456 kts 141°
2026-04-29 04:46 -9.37025 93.47623 36926 ft 456 kts 142°
2026-04-29 04:47 -9.42051 93.51469 36928 ft 456 kts 141°
2026-04-29 04:47 -9.47119 93.55350 36931 ft 457 kts 142°
2026-04-29 04:48 -9.52190 93.59231 36931 ft 457 kts 142°
2026-04-29 04:48 -9.57262 93.63111 36928 ft 457 kts 142°
2026-04-29 04:49 -9.62333 93.67002 36930 ft 457 kts 141°
2026-04-29 04:49 -9.67400 93.70888 36932 ft 457 kts 142°
2026-04-29 04:50 -9.72480 93.74783 36932 ft 457 kts 142°
2026-04-29 04:50 -9.77511 93.78644 36935 ft 457 kts 141°
2026-04-29 04:51 -9.82577 93.82532 36938 ft 456 kts 142°
2026-04-29 04:51 -9.87623 93.86406 36936 ft 454 kts 142°
2026-04-29 04:52 -9.92662 93.90277 36937 ft 453 kts 142°
2026-04-29 04:52 -9.97696 93.94145 36936 ft 454 kts 142°
2026-04-29 04:53 -10.02733 93.98016 36934 ft 455 kts 142°
2026-04-29 04:53 -10.07774 94.01893 36933 ft 454 kts 142°
2026-04-29 04:54 -10.12805 94.05765 36935 ft 453 kts 142°
2026-04-29 04:54 -10.17808 94.09615 36935 ft 454 kts 142°
2026-04-29 04:55 -10.22853 94.13499 36934 ft 455 kts 142°
2026-04-29 04:55 -10.27902 94.17388 36939 ft 456 kts 142°
2026-04-29 04:56 -10.32947 94.21278 36939 ft 453 kts 142°
2026-04-29 04:56 -10.37969 94.25148 36939 ft 453 kts 142°
2026-04-29 04:57 -10.42980 94.29013 36941 ft 452 kts 142°
2026-04-29 04:57 -10.47995 94.32882 36941 ft 453 kts 142°
2026-04-29 04:58 -10.52171 94.36107 36942 ft 453 kts 142°
2026-04-29 04:58 -10.57195 94.39985 36946 ft 454 kts 142°
2026-04-29 04:59 -10.62227 94.43874 36942 ft 454 kts 142°
2026-04-29 04:59 -10.67261 94.47766 36943 ft 454 kts 142°
2026-04-29 05:00 -10.72289 94.51651 36944 ft 453 kts 142°
2026-04-29 05:00 -10.77313 94.55536 36945 ft 454 kts 142°
2026-04-29 05:01 -10.82310 94.59403 36947 ft 454 kts 142°
2026-04-29 05:01 -10.87337 94.63293 36947 ft 454 kts 142°
2026-04-29 05:02 -10.92370 94.67192 36948 ft 455 kts 142°
2026-04-29 05:02 -10.97405 94.71094 36948 ft 454 kts 142°
2026-04-29 05:03 -11.02436 94.74996 36948 ft 454 kts 142°
2026-04-29 05:03 -11.07458 94.78889 36948 ft 454 kts 142°
2026-04-29 05:04 -11.12455 94.82767 36950 ft 454 kts 142°
2026-04-29 05:04 -11.17481 94.86669 36947 ft 454 kts 142°
2026-04-29 05:05 -11.22503 94.90566 36943 ft 454 kts 142°
2026-04-29 05:05 -11.27526 94.94469 36952 ft 454 kts 141°
2026-04-29 05:06 -11.32558 94.98381 36950 ft 456 kts 142°
2026-04-29 05:06 -11.37612 95.02311 36951 ft 457 kts 142°
2026-04-29 05:07 -11.42668 95.06243 36950 ft 457 kts 142°
2026-04-29 05:07 -11.47728 95.10183 36950 ft 457 kts 142°
2026-04-29 05:08 -11.52783 95.14116 36951 ft 457 kts 142°
2026-04-29 05:08 -11.57805 95.18032 36954 ft 457 kts 142°
2026-04-29 05:09 -11.62862 95.21974 36952 ft 457 kts 142°
2026-04-29 05:09 -11.67938 95.25930 36954 ft 460 kts 142°
2026-04-29 05:10 -11.73026 95.29899 36955 ft 460 kts 142°
2026-04-29 05:10 -11.78113 95.33868 36959 ft 460 kts 142°
2026-04-29 05:11 -11.83210 95.37848 36956 ft 461 kts 142°
2026-04-29 05:11 -11.88316 95.41838 36958 ft 462 kts 142°
2026-04-29 05:12 -11.93421 95.45828 36959 ft 461 kts 142°
2026-04-29 05:12 -11.98529 95.49823 36957 ft 463 kts 142°
2026-04-29 05:13 -12.03639 95.53822 36959 ft 462 kts 142°
2026-04-29 05:13 -12.08697 95.57781 36956 ft 461 kts 142°
2026-04-29 05:14 -12.13798 95.61775 36961 ft 460 kts 142°
2026-04-29 05:14 -12.18879 95.65757 36962 ft 461 kts 142°
2026-04-29 05:15 -12.23972 95.69748 36963 ft 461 kts 142°
2026-04-29 05:15 -12.29028 95.73714 36966 ft 460 kts 142°
2026-04-29 05:16 -12.34117 95.77703 36963 ft 461 kts 142°
2026-04-29 05:16 -12.39224 95.81716 36967 ft 464 kts 141°
2026-04-29 05:17 -12.44329 95.85729 36964 ft 462 kts 142°
2026-04-29 05:17 -12.49433 95.89741 36965 ft 463 kts 142°
2026-04-29 05:18 -12.54524 95.93742 36963 ft 460 kts 142°
2026-04-29 05:18 -12.59611 95.97745 36969 ft 461 kts 142°
2026-04-29 05:19 -12.64716 96.01764 36971 ft 462 kts 142°
2026-04-29 05:19 -12.69817 96.05777 36966 ft 463 kts 141°
2026-04-29 05:20 -12.74915 96.09797 36969 ft 466 kts 141°
2026-04-29 05:20 -12.80062 96.13855 36972 ft 464 kts 142°
2026-04-29 05:21 -12.85202 96.17906 36974 ft 465 kts 142°
2026-04-29 05:21 -12.90320 96.21942 36974 ft 463 kts 142°
2026-04-29 05:22 -12.95432 96.25977 36976 ft 466 kts 142°
2026-04-29 05:22 -13.00568 96.30036 36973 ft 465 kts 141°
2026-04-29 05:23 -13.05704 96.34100 36980 ft 468 kts 141°
2026-04-29 05:23 -13.10905 96.38214 36975 ft 472 kts 141°
2026-04-29 05:24 -13.16112 96.42325 36976 ft 472 kts 141°
2026-04-29 05:24 -13.21284 96.46417 36977 ft 471 kts 141°
2026-04-29 05:25 -13.26462 96.50523 36976 ft 469 kts 141°
2026-04-29 05:25 -13.31630 96.54618 36975 ft 471 kts 141°
2026-04-29 05:26 -13.36804 96.58721 36977 ft 470 kts 141°
2026-04-29 05:26 -13.41993 96.62838 36986 ft 473 kts 142°
2026-04-29 05:27 -13.47214 96.66982 36983 ft 474 kts 142°
2026-04-29 05:27 -13.55020 96.73180 36983 ft 473 kts 142°
2026-04-29 05:28 -13.60239 96.77328 36982 ft 474 kts 142°
2026-04-29 05:28 -13.65466 96.81479 36985 ft 475 kts 142°
2026-04-29 05:29 -13.70692 96.85633 36984 ft 475 kts 142°
2026-04-29 05:29 -13.75917 96.89796 36983 ft 475 kts 142°
2026-04-29 05:30 -13.81121 96.93942 36988 ft 476 kts 142°
2026-04-29 05:30 -13.86363 96.98122 36989 ft 476 kts 142°
2026-04-29 05:31 -13.91590 97.02297 36989 ft 475 kts 142°
2026-04-29 05:31 -13.96822 97.06477 36990 ft 476 kts 142°
2026-04-29 05:32 -14.02063 97.10657 36992 ft 477 kts 142°
2026-04-29 05:32 -14.07309 97.14851 36988 ft 476 kts 142°
2026-04-29 05:33 -14.12541 97.19042 36992 ft 477 kts 142°
2026-04-29 05:33 -14.17796 97.23249 36991 ft 479 kts 142°
2026-04-29 05:34 -14.23064 97.27463 36991 ft 479 kts 142°
2026-04-29 05:34 -14.28325 97.31681 36991 ft 479 kts 142°
2026-04-29 05:35 -14.33552 97.35872 36992 ft 479 kts 142°
2026-04-29 05:35 -14.38809 97.40093 36997 ft 479 kts 142°
2026-04-29 05:36 -14.44071 97.44324 36997 ft 479 kts 142°
2026-04-29 05:36 -14.49328 97.48562 36997 ft 479 kts 142°
2026-04-29 05:37 -14.54595 97.52793 36999 ft 479 kts 142°
2026-04-29 05:37 -14.59816 97.56989 37000 ft 479 kts 142°
2026-04-29 05:38 -14.65067 97.61215 36998 ft 478 kts 142°
2026-04-29 05:38 -14.70325 97.65448 37002 ft 479 kts 142°
2026-04-29 05:39 -14.75582 97.69682 37001 ft 479 kts 142°
2026-04-29 05:39 -14.80829 97.73913 37003 ft 480 kts 143°
2026-04-29 05:40 -14.86103 97.78167 37003 ft 482 kts 143°
2026-04-29 05:40 -14.91394 97.82437 37002 ft 482 kts 143°
2026-04-29 05:41 -14.96679 97.86705 37002 ft 482 kts 143°
2026-04-29 05:41 -15.01930 97.90950 37004 ft 482 kts 143°
2026-04-29 05:42 -15.07224 97.95231 37002 ft 482 kts 143°
2026-04-29 05:42 -15.12503 97.99505 37007 ft 481 kts 143°
2026-04-29 05:43 -15.17780 98.03776 37006 ft 482 kts 143°
2026-04-29 05:43 -15.23069 98.08063 37009 ft 483 kts 143°
2026-04-29 05:44 -15.28356 98.12351 37009 ft 483 kts 143°
2026-04-29 05:44 -15.33643 98.16643 37009 ft 483 kts 143°
2026-04-29 05:45 -15.38930 98.20933 37010 ft 483 kts 143°
2026-04-29 05:45 -15.44216 98.25227 37012 ft 483 kts 143°
2026-04-29 05:46 -15.49507 98.29529 37021 ft 482 kts 143°
2026-04-29 05:46 -15.54739 98.33787 37016 ft 481 kts 143°
2026-04-29 05:47 -15.59116 98.37349 37015 ft 481 kts 144°
2026-04-29 05:47 -15.64375 98.41631 37019 ft 481 kts 144°
2026-04-29 05:48 -15.69639 98.45923 37018 ft 481 kts 144°
2026-04-29 05:48 -15.74901 98.50213 37017 ft 481 kts 144°
2026-04-29 05:49 -15.80162 98.54508 37023 ft 481 kts 143°
2026-04-29 05:49 -15.85412 98.58797 37024 ft 478 kts 143°
2026-04-29 05:50 -15.90644 98.63072 37023 ft 478 kts 143°
2026-04-29 05:50 -15.95871 98.67348 37021 ft 478 kts 143°
2026-04-29 05:51 -16.01092 98.71623 37021 ft 478 kts 143°
2026-04-29 05:51 -16.06278 98.75870 37023 ft 478 kts 144°
2026-04-29 05:52 -16.11497 98.80145 37024 ft 478 kts 144°
2026-04-29 05:52 -16.16714 98.84424 37032 ft 478 kts 144°
2026-04-29 05:53 -16.21923 98.88700 37028 ft 477 kts 144°
2026-04-29 05:53 -16.27131 98.92976 37028 ft 477 kts 144°
2026-04-29 05:54 -16.32339 98.97256 37024 ft 477 kts 144°
2026-04-29 05:54 -16.37543 99.01537 37026 ft 477 kts 144°
2026-04-29 05:55 -16.42752 99.05827 37027 ft 477 kts 144°
2026-04-29 05:55 -16.47955 99.10113 37031 ft 477 kts 144°
2026-04-29 05:56 -16.53151 99.14396 37033 ft 476 kts 144°
2026-04-29 05:56 -16.58346 99.18684 37034 ft 476 kts 144°
2026-04-29 05:57 -16.63538 99.22969 37036 ft 476 kts 144°
2026-04-29 05:57 -16.68698 99.27230 37033 ft 476 kts 144°
2026-04-29 05:58 -16.73886 99.31516 37035 ft 476 kts 144°
2026-04-29 05:58 -16.79077 99.35811 37038 ft 476 kts 144°
2026-04-29 05:59 -16.84267 99.40105 37048 ft 476 kts 145°
2026-04-29 05:59 -16.89465 99.44404 37034 ft 477 kts 144°
2026-04-29 06:00 -16.94666 99.48715 37038 ft 476 kts 145°
2026-04-29 06:00 -16.99861 99.53022 37035 ft 476 kts 145°
2026-04-29 06:01 -17.05051 99.57328 37039 ft 476 kts 144°
2026-04-29 06:01 -17.10204 99.61610 37034 ft 476 kts 144°
2026-04-29 06:02 -17.15394 99.65924 37037 ft 476 kts 144°
2026-04-29 06:02 -17.20585 99.70241 37038 ft 477 kts 145°
2026-04-29 06:03 -17.25777 99.74569 37039 ft 477 kts 145°
2026-04-29 06:03 -17.30973 99.78903 37041 ft 477 kts 145°
2026-04-29 06:04 -17.36167 99.83233 37038 ft 477 kts 145°
2026-04-29 06:04 -17.41355 99.87559 37041 ft 477 kts 145°
2026-04-29 06:05 -17.46525 99.91872 37035 ft 477 kts 145°
2026-04-29 06:05 -17.51749 99.96237 37041 ft 478 kts 145°
2026-04-29 06:06 -17.56947 100.00583 37042 ft 478 kts 145°
2026-04-29 06:06 -17.62116 100.04907 37043 ft 478 kts 145°
2026-04-29 06:07 -17.67316 100.09263 37048 ft 478 kts 145°
2026-04-29 06:07 -17.72514 100.13621 37042 ft 478 kts 145°
2026-04-29 06:08 -17.77708 100.17975 37043 ft 478 kts 145°
2026-04-29 06:08 -17.82909 100.22339 37045 ft 478 kts 145°
2026-04-29 06:09 -17.88102 100.26703 37046 ft 478 kts 145°
2026-04-29 06:09 -17.93291 100.31067 37049 ft 478 kts 145°
2026-04-29 06:10 -17.98476 100.35427 37043 ft 478 kts 145°
2026-04-29 06:10 -18.03662 100.39795 37048 ft 478 kts 145°
2026-04-29 06:11 -18.08850 100.44166 37047 ft 478 kts 145°
2026-04-29 06:11 -18.14002 100.48512 37055 ft 478 kts 145°
2026-04-29 06:12 -18.19187 100.52890 37046 ft 478 kts 145°
2026-04-29 06:12 -18.24386 100.57276 37045 ft 478 kts 145°
2026-04-29 06:13 -18.29562 100.61652 37042 ft 477 kts 145°
2026-04-29 06:13 -18.34736 100.66030 37045 ft 477 kts 145°
2026-04-29 06:14 -18.39909 100.70413 37045 ft 477 kts 145°
2026-04-29 06:14 -18.45052 100.74770 37048 ft 477 kts 145°
2026-04-29 06:15 -18.50227 100.79158 37051 ft 478 kts 145°
2026-04-29 06:15 -18.55420 100.83565 37050 ft 479 kts 145°
2026-04-29 06:16 -18.60611 100.87973 37047 ft 479 kts 145°
2026-04-29 06:16 -18.65795 100.92380 37047 ft 479 kts 145°
2026-04-29 06:17 -18.70983 100.96796 37049 ft 478 kts 145°
2026-04-29 06:17 -18.76162 101.01203 37047 ft 478 kts 145°
2026-04-29 06:18 -18.81309 101.05589 37052 ft 479 kts 145°
2026-04-29 06:18 -18.86499 101.10018 37047 ft 480 kts 145°
2026-04-29 06:19 -18.91692 101.14450 37046 ft 480 kts 145°
2026-04-29 06:19 -18.96891 101.18887 37048 ft 480 kts 145°
2026-04-29 06:20 -19.02078 101.23323 37050 ft 480 kts 145°
2026-04-29 06:20 -19.07271 101.27765 37051 ft 480 kts 145°
2026-04-29 06:21 -19.12457 101.32209 37054 ft 480 kts 145°
2026-04-29 06:21 -19.17615 101.36630 37051 ft 481 kts 145°
2026-04-29 06:22 -19.22811 101.41084 37053 ft 481 kts 145°
2026-04-29 06:22 -19.28008 101.45551 37046 ft 481 kts 145°
2026-04-29 06:23 -19.33208 101.50018 37042 ft 481 kts 145°
2026-04-29 06:23 -19.38404 101.54484 37044 ft 481 kts 145°
2026-04-29 06:24 -19.43599 101.58958 37064 ft 481 kts 145°
2026-04-29 06:24 -19.48774 101.63413 37054 ft 483 kts 145°
2026-04-29 06:25 -19.53983 101.67904 37049 ft 483 kts 145°
2026-04-29 06:25 -19.59181 101.72394 37052 ft 481 kts 145°
2026-04-29 06:26 -19.64375 101.76881 37051 ft 481 kts 145°
2026-04-29 06:26 -19.69568 101.81371 37054 ft 481 kts 145°
2026-04-29 06:27 -19.74764 101.85864 37072 ft 482 kts 146°
2026-04-29 06:27 -19.79975 101.90372 37059 ft 483 kts 146°
2026-04-29 06:28 -19.85144 101.94850 37062 ft 483 kts 145°
2026-04-29 06:28 -19.90351 101.99370 37063 ft 483 kts 145°
2026-04-29 06:29 -19.95555 102.03889 37059 ft 483 kts 145°
2026-04-29 06:29 -20.00758 102.08410 37061 ft 482 kts 146°
2026-04-29 06:30 -20.08550 102.15191 37062 ft 483 kts 146°
2026-04-29 06:31 -20.13755 102.19726 37069 ft 484 kts 146°
2026-04-29 06:31 -20.18964 102.24270 37060 ft 484 kts 145°
2026-04-29 06:32 -20.24140 102.28783 37054 ft 484 kts 146°
2026-04-29 06:32 -20.29347 102.33327 37053 ft 484 kts 146°
2026-04-29 06:33 -20.34558 102.37876 37067 ft 484 kts 145°
2026-04-29 06:33 -20.39774 102.42440 37063 ft 485 kts 146°
2026-04-29 06:34 -20.44985 102.47004 37062 ft 485 kts 146°
2026-04-29 06:34 -20.50202 102.51576 37058 ft 485 kts 146°
2026-04-29 06:35 -20.55387 102.56127 37060 ft 485 kts 146°
2026-04-29 06:35 -20.60598 102.60702 37060 ft 485 kts 146°
2026-04-29 06:36 -20.65812 102.65282 37060 ft 485 kts 146°
2026-04-29 06:36 -20.70146 102.69095 37066 ft 486 kts 146°
2026-04-29 06:37 -20.76217 102.74440 37059 ft 486 kts 146°
2026-04-29 06:37 -20.81444 102.79035 37062 ft 486 kts 146°
2026-04-29 06:38 -20.85780 102.82858 37062 ft 485 kts 146°
2026-04-29 06:38 -20.90990 102.87458 37062 ft 485 kts 146°
2026-04-29 06:39 -20.96200 102.92058 37062 ft 485 kts 146°
2026-04-29 06:39 -21.01405 102.96663 37061 ft 485 kts 146°
2026-04-29 06:40 -21.06609 103.01268 37064 ft 485 kts 146°
2026-04-29 06:40 -21.11805 103.05876 37065 ft 485 kts 146°
2026-04-29 06:41 -21.16971 103.10460 37061 ft 485 kts 146°
2026-04-29 06:41 -21.22163 103.15072 37059 ft 484 kts 146°
2026-04-29 06:42 -21.27352 103.19679 37078 ft 484 kts 146°
2026-04-29 06:42 -21.32548 103.24297 37064 ft 486 kts 146°
2026-04-29 06:43 -21.37758 103.28936 37064 ft 486 kts 146°
2026-04-29 06:43 -21.42930 103.33545 37065 ft 486 kts 146°
2026-04-29 06:44 -21.48130 103.38182 37065 ft 486 kts 146°
2026-04-29 06:44 -21.53334 103.42826 37065 ft 486 kts 146°
2026-04-29 06:45 -21.58537 103.47477 37079 ft 486 kts 146°
2026-04-29 06:45 -21.63747 103.52135 37066 ft 486 kts 146°
2026-04-29 06:46 -21.68917 103.56764 37065 ft 486 kts 146°
2026-04-29 06:46 -21.74125 103.61427 37065 ft 486 kts 146°
2026-04-29 06:47 -21.79321 103.66094 37069 ft 486 kts 146°
2026-04-29 06:47 -21.84518 103.70762 37068 ft 486 kts 146°
2026-04-29 06:48 -21.89720 103.75437 37076 ft 487 kts 146°
2026-04-29 06:48 -21.94889 103.80089 37066 ft 487 kts 146°
2026-04-29 06:49 -22.00093 103.84774 37070 ft 487 kts 146°
2026-04-29 06:49 -22.05298 103.89465 37067 ft 487 kts 146°
2026-04-29 06:50 -22.10495 103.94153 37068 ft 487 kts 146°
2026-04-29 06:50 -22.15696 103.98852 37068 ft 487 kts 146°
2026-04-29 06:51 -22.20891 104.03545 37077 ft 488 kts 146°
2026-04-29 06:51 -22.26101 104.08257 37071 ft 488 kts 146°
2026-04-29 06:52 -22.31310 104.12977 37069 ft 489 kts 146°
2026-04-29 06:52 -22.36512 104.17697 37068 ft 489 kts 146°
2026-04-29 06:53 -22.41687 104.22391 37065 ft 488 kts 146°
2026-04-29 06:53 -22.46879 104.27110 37086 ft 487 kts 146°
2026-04-29 06:54 -22.52081 104.31843 37069 ft 489 kts 146°
2026-04-29 06:54 -22.57285 104.36581 37069 ft 489 kts 146°
2026-04-29 06:55 -22.62494 104.41328 37070 ft 489 kts 146°
2026-04-29 06:55 -22.67695 104.46075 37069 ft 489 kts 146°
2026-04-29 06:56 -22.72895 104.50826 37068 ft 489 kts 146°
2026-04-29 06:56 -22.78098 104.55583 37081 ft 490 kts 146°
2026-04-29 06:57 -22.83318 104.60361 37070 ft 491 kts 146°
2026-04-29 06:57 -22.88530 104.65133 37068 ft 490 kts 146°
2026-04-29 06:58 -22.93738 104.69908 37071 ft 490 kts 146°
2026-04-29 06:58 -22.98943 104.74690 37069 ft 490 kts 146°
2026-04-29 06:59 -23.04112 104.79441 37070 ft 490 kts 146°
2026-04-29 06:59 -23.09321 104.84232 37078 ft 491 kts 146°
2026-04-29 07:00 -23.14537 104.89037 37071 ft 491 kts 146°
2026-04-29 07:00 -23.19754 104.93848 37070 ft 491 kts 146°
2026-04-29 07:01 -23.24959 104.98651 37072 ft 491 kts 146°
2026-04-29 07:01 -23.30169 105.03464 37070 ft 491 kts 146°
2026-04-29 07:02 -23.35373 105.08276 37076 ft 491 kts 146°
2026-04-29 07:02 -23.40585 105.13102 37080 ft 492 kts 146°
2026-04-29 07:03 -23.45797 105.17933 37209 ft 493 kts 146°
2026-04-29 07:03 -23.48407 105.20354 37625 ft 492 kts 146°
2026-04-29 07:03 -23.51002 105.22765 38054 ft 490 kts 146°
2026-04-29 07:03 -23.53566 105.25148 38448 ft 489 kts 146°
2026-04-29 07:04 -23.56184 105.27582 38860 ft 488 kts 146°
2026-04-29 07:04 -23.58740 105.29955 39055 ft 489 kts 146°
2026-04-29 07:04 -23.61329 105.32362 39094 ft 489 kts 146°
2026-04-29 07:05 -23.66510 105.37184 39083 ft 489 kts 146°
2026-04-29 07:05 -23.71692 105.42014 39073 ft 490 kts 146°
2026-04-29 07:06 -23.76869 105.46844 39072 ft 490 kts 146°
2026-04-29 07:06 -23.82046 105.51680 39069 ft 489 kts 146°
2026-04-29 07:07 -23.87224 105.56520 39071 ft 489 kts 146°
2026-04-29 07:07 -23.92393 105.61360 39071 ft 489 kts 146°
2026-04-29 07:08 -23.97562 105.66202 39065 ft 490 kts 146°
2026-04-29 07:08 -24.02700 105.71023 39067 ft 490 kts 146°
2026-04-29 07:09 -24.07872 105.75880 39067 ft 490 kts 146°
2026-04-29 07:09 -24.13046 105.80725 39068 ft 490 kts 146°
2026-04-29 07:10 -24.18220 105.85585 39087 ft 490 kts 146°
2026-04-29 07:10 -24.23400 105.90471 39071 ft 492 kts 146°
2026-04-29 07:11 -24.28593 105.95360 39068 ft 492 kts 146°
2026-04-29 07:11 -24.33768 106.00261 39062 ft 492 kts 146°
2026-04-29 07:12 -24.38933 106.05151 39068 ft 489 kts 146°
2026-04-29 07:12 -24.44092 106.10030 39069 ft 490 kts 146°
2026-04-29 07:13 -24.49266 106.14930 39073 ft 492 kts 146°
2026-04-29 07:13 -24.54452 106.19848 39067 ft 493 kts 146°
2026-04-29 07:14 -24.59607 106.24751 39066 ft 493 kts 146°
2026-04-29 07:14 -24.64793 106.29672 39065 ft 493 kts 146°
2026-04-29 07:15 -24.69984 106.34610 39064 ft 493 kts 146°
2026-04-29 07:15 -24.75160 106.39553 39077 ft 492 kts 146°
2026-04-29 07:16 -24.80343 106.44496 39071 ft 494 kts 146°
2026-04-29 07:16 -24.85537 106.49449 39068 ft 494 kts 146°
2026-04-29 07:17 -24.90726 106.54409 39065 ft 494 kts 146°
2026-04-29 07:17 -24.95907 106.59371 39065 ft 493 kts 146°
2026-04-29 07:18 -25.01090 106.64337 39086 ft 494 kts 147°
2026-04-29 07:18 -25.06295 106.69331 39068 ft 497 kts 147°
2026-04-29 07:19 -25.11498 106.74326 39061 ft 495 kts 147°
2026-04-29 07:19 -25.16680 106.79322 39067 ft 495 kts 147°
2026-04-29 07:20 -25.21873 106.84317 39072 ft 495 kts 147°
2026-04-29 07:20 -25.27029 106.89292 39096 ft 495 kts 147°
2026-04-29 07:21 -25.32228 106.94310 39071 ft 497 kts 147°
2026-04-29 07:21 -25.37442 106.99349 39071 ft 497 kts 147°
2026-04-29 07:22 -25.42651 107.04383 39074 ft 497 kts 147°
2026-04-29 07:22 -25.47843 107.09416 39059 ft 494 kts 147°
2026-04-29 07:23 -25.53023 107.14443 39070 ft 496 kts 147°
2026-04-29 07:23 -25.58193 107.19448 39078 ft 498 kts 147°
2026-04-29 07:24 -25.63404 107.24512 39072 ft 498 kts 147°
2026-04-29 07:24 -25.68612 107.29589 39070 ft 498 kts 147°
2026-04-29 07:25 -25.73820 107.34666 39072 ft 498 kts 147°
2026-04-29 07:25 -25.78154 107.38892 39074 ft 498 kts 147°
2026-04-29 07:26 -25.83366 107.43978 39085 ft 499 kts 147°
2026-04-29 07:26 -25.88576 107.49072 39077 ft 499 kts 147°
2026-04-29 07:27 -25.93797 107.54185 39072 ft 499 kts 146°
2026-04-29 07:27 -25.98973 107.59263 39074 ft 499 kts 146°
2026-04-29 07:28 -26.04179 107.64369 39077 ft 499 kts 147°
2026-04-29 07:28 -26.09391 107.69485 39093 ft 501 kts 146°
2026-04-29 07:29 -26.14618 107.74635 39079 ft 502 kts 146°
2026-04-29 07:29 -26.19839 107.79779 39074 ft 501 kts 146°
2026-04-29 07:30 -26.25053 107.84915 39082 ft 500 kts 146°
2026-04-29 07:30 -26.30268 107.90052 39089 ft 500 kts 146°
2026-04-29 07:31 -26.38097 107.97792 39088 ft 503 kts 146°
2026-04-29 07:31 -26.43332 108.02974 39084 ft 503 kts 146°
2026-04-29 07:32 -26.48569 108.08163 39082 ft 503 kts 146°
2026-04-29 07:32 -26.53802 108.13359 39083 ft 503 kts 146°
2026-04-29 07:33 -26.59032 108.18560 39083 ft 503 kts 146°
2026-04-29 07:33 -26.64263 108.23768 39082 ft 503 kts 146°
2026-04-29 07:34 -26.69490 108.28984 39081 ft 503 kts 146°
2026-04-29 07:34 -26.74710 108.34204 39083 ft 503 kts 146°
2026-04-29 07:35 -26.79933 108.39433 39083 ft 503 kts 146°
2026-04-29 07:35 -26.85152 108.44663 39095 ft 504 kts 146°
2026-04-29 07:36 -26.90349 108.49870 39085 ft 505 kts 146°
2026-04-29 07:36 -26.95587 108.55122 39088 ft 505 kts 146°
2026-04-29 07:37 -27.00823 108.60389 39087 ft 505 kts 146°
2026-04-29 07:37 -27.06057 108.65657 39090 ft 505 kts 146°
2026-04-29 07:38 -27.11285 108.70927 39111 ft 506 kts 146°
2026-04-29 07:38 -27.16528 108.76210 39094 ft 507 kts 146°
2026-04-29 07:39 -27.21768 108.81500 39087 ft 506 kts 145°
2026-04-29 07:39 -27.26993 108.86779 39090 ft 505 kts 145°
2026-04-29 07:40 -27.32215 108.92059 39092 ft 505 kts 145°
2026-04-29 07:40 -27.37442 108.97359 39104 ft 507 kts 145°
2026-04-29 07:41 -27.42647 109.02650 39090 ft 508 kts 145°
2026-04-29 07:41 -27.47888 109.07982 39092 ft 508 kts 145°
2026-04-29 07:42 -27.53121 109.13320 39084 ft 507 kts 145°
2026-04-29 07:42 -27.58353 109.18651 39094 ft 506 kts 145°
2026-04-29 07:43 -27.63588 109.23987 39107 ft 507 kts 145°
2026-04-29 07:43 -27.68827 109.29343 39100 ft 508 kts 145°
2026-04-29 07:44 -27.74029 109.34671 39101 ft 508 kts 145°
2026-04-29 07:44 -27.79262 109.40035 39092 ft 508 kts 145°
2026-04-29 07:45 -27.84495 109.45399 39121 ft 508 kts 145°
2026-04-29 07:45 -27.89732 109.50788 39102 ft 509 kts 144°
2026-04-29 07:46 -27.94973 109.56176 39094 ft 509 kts 145°
2026-04-29 07:46 -28.00209 109.61572 39094 ft 509 kts 144°
2026-04-29 07:47 -28.05448 109.66984 39096 ft 509 kts 144°
2026-04-29 07:47 -28.10690 109.72401 39117 ft 511 kts 144°
2026-04-29 07:48 -28.15956 109.77839 39103 ft 513 kts 144°
2026-04-29 07:48 -28.21190 109.83268 39094 ft 512 kts 144°
2026-04-29 07:49 -28.26443 109.88722 39098 ft 511 kts 144°
2026-04-29 07:49 -28.31683 109.94166 39098 ft 511 kts 144°
2026-04-29 07:50 -28.36947 109.99640 39106 ft 514 kts 144°
2026-04-29 07:50 -28.42220 110.05140 39098 ft 515 kts 144°
2026-04-29 07:51 -28.47467 110.10615 39095 ft 514 kts 144°
2026-04-29 07:51 -28.52735 110.16117 39094 ft 514 kts 144°
2026-04-29 07:52 -28.57997 110.21625 39125 ft 515 kts 144°
2026-04-29 07:52 -28.63279 110.27160 39104 ft 516 kts 144°
2026-04-29 07:53 -28.68555 110.32700 39098 ft 516 kts 144°
2026-04-29 07:53 -28.73836 110.38249 39098 ft 516 kts 144°
2026-04-29 07:54 -28.79112 110.43799 39098 ft 516 kts 144°
2026-04-29 07:54 -28.84345 110.49322 39100 ft 516 kts 144°
2026-04-29 07:55 -28.89623 110.54887 39097 ft 517 kts 144°
2026-04-29 07:55 -28.94903 110.60463 39098 ft 517 kts 144°
2026-04-29 07:56 -29.00174 110.66048 39095 ft 517 kts 144°
2026-04-29 07:56 -29.05453 110.71626 39095 ft 517 kts 144°
2026-04-29 07:57 -29.10724 110.77220 39092 ft 517 kts 144°
2026-04-29 07:57 -29.15956 110.82774 39093 ft 516 kts 144°
2026-04-29 07:58 -29.21218 110.88374 39097 ft 516 kts 144°
2026-04-29 07:58 -29.26472 110.93976 39126 ft 516 kts 144°
2026-04-29 07:59 -29.31730 110.99592 39100 ft 516 kts 144°
2026-04-29 07:59 -29.36979 111.05220 39096 ft 516 kts 144°
2026-04-29 08:00 -29.42232 111.10848 39102 ft 517 kts 144°
2026-04-29 08:00 -29.47488 111.16495 39096 ft 517 kts 144°
2026-04-29 08:01 -29.52707 111.22112 39117 ft 517 kts 144°
2026-04-29 08:01 -29.57945 111.27754 39101 ft 516 kts 144°
2026-04-29 08:02 -29.63195 111.33391 39098 ft 517 kts 144°
2026-04-29 08:02 -29.68450 111.39044 39100 ft 517 kts 144°
2026-04-29 08:03 -29.73691 111.44719 39130 ft 517 kts 144°
2026-04-29 08:03 -29.78921 111.50388 39102 ft 516 kts 144°
2026-04-29 08:04 -29.84157 111.56060 39098 ft 517 kts 144°
2026-04-29 08:04 -29.89400 111.61749 39096 ft 518 kts 144°
2026-04-29 08:05 -29.94639 111.67443 39091 ft 518 kts 144°
2026-04-29 08:05 -29.99867 111.73136 39097 ft 516 kts 144°
2026-04-29 08:06 -30.05085 111.78831 39094 ft 517 kts 144°
2026-04-29 08:06 -30.10266 111.84498 39089 ft 515 kts 144°
2026-04-29 08:07 -30.15471 111.90190 39095 ft 515 kts 144°
2026-04-29 08:07 -30.20671 111.95893 39111 ft 516 kts 144°
2026-04-29 08:08 -30.25880 112.01604 39093 ft 515 kts 144°
2026-04-29 08:08 -30.31073 112.07317 39090 ft 515 kts 144°
2026-04-29 08:09 -30.36271 112.13040 39080 ft 516 kts 144°
2026-04-29 08:09 -30.41472 112.18776 39115 ft 515 kts 144°
2026-04-29 08:10 -30.46667 112.24509 39096 ft 515 kts 144°
2026-04-29 08:10 -30.51870 112.30238 39095 ft 516 kts 144°
2026-04-29 08:11 -30.57072 112.35981 39089 ft 516 kts 144°
2026-04-29 08:11 -30.62233 112.41702 39121 ft 516 kts 144°
2026-04-29 08:12 -30.67410 112.47495 39085 ft 516 kts 143°
2026-04-29 08:12 -30.72588 112.53270 39088 ft 515 kts 144°
2026-04-29 08:13 -30.77757 112.59029 39086 ft 515 kts 144°
2026-04-29 08:13 -30.82926 112.64798 39123 ft 515 kts 144°
2026-04-29 08:14 -30.87215 112.69588 39100 ft 515 kts 144°
2026-04-29 08:14 -30.92390 112.75386 39089 ft 516 kts 144°
2026-04-29 08:15 -30.98408 112.82131 39082 ft 515 kts 144°
2026-04-29 08:15 -31.02730 112.86990 39082 ft 515 kts 144°
2026-04-29 08:16 -31.07893 112.92790 39098 ft 515 kts 144°
2026-04-29 08:16 -31.13057 112.98594 39082 ft 516 kts 144°
2026-04-29 08:17 -31.18180 113.04386 39093 ft 515 kts 144°
2026-04-29 08:17 -31.23338 113.10218 39097 ft 515 kts 144°
2026-04-29 08:18 -31.28496 113.16027 39085 ft 515 kts 144°
2026-04-29 08:18 -31.33651 113.21857 39084 ft 515 kts 144°
2026-04-29 08:19 -31.38791 113.27705 39081 ft 515 kts 143°
2026-04-29 08:19 -31.43919 113.33582 39083 ft 517 kts 142°
2026-04-29 08:20 -31.46236 113.36846 39097 ft 528 kts 130°
2026-04-29 08:20 -31.48008 113.40646 39082 ft 537 kts 116°
2026-04-29 08:20 -31.49094 113.44802 39072 ft 543 kts 105°
2026-04-29 08:20 -31.49877 113.49136 39080 ft 542 kts 103°
2026-04-29 08:21 -31.51380 113.57775 39068 ft 540 kts 104°
2026-04-29 08:21 -31.52935 113.66401 39061 ft 539 kts 104°
2026-04-29 08:22 -31.53719 113.70689 38772 ft 539 kts 104°
2026-04-29 08:22 -31.54508 113.74996 38442 ft 541 kts 104°
2026-04-29 08:22 -31.55288 113.79315 38156 ft 541 kts 104°
2026-04-29 08:22 -31.56068 113.83632 37763 ft 539 kts 104°
2026-04-29 08:23 -31.56850 113.87936 37221 ft 538 kts 103°
2026-04-29 08:23 -31.57624 113.92231 36500 ft 537 kts 103°
2026-04-29 08:23 -31.58389 113.96515 35758 ft 536 kts 103°
2026-04-29 08:23 -31.59157 114.00793 35018 ft 535 kts 103°
2026-04-29 08:24 -31.59912 114.05016 34238 ft 536 kts 102°
2026-04-29 08:24 -31.60674 114.09295 33279 ft 537 kts 102°
2026-04-29 08:24 -31.61442 114.13588 32351 ft 539 kts 102°
2026-04-29 08:24 -31.62212 114.17902 31413 ft 541 kts 102°
2026-04-29 08:25 -31.62987 114.22236 30482 ft 543 kts 102°
2026-04-29 08:25 -31.63758 114.26583 29350 ft 544 kts 102°
2026-04-29 08:25 -31.64520 114.30923 28199 ft 542 kts 102°
2026-04-29 08:25 -31.65283 114.35239 27190 ft 537 kts 102°
2026-04-29 08:26 -31.66036 114.39499 26236 ft 530 kts 102°
2026-04-29 08:26 -31.66774 114.43709 25371 ft 522 kts 102°
2026-04-29 08:26 -31.67498 114.47858 24507 ft 515 kts 102°
2026-04-29 08:26 -31.68218 114.51948 23651 ft 508 kts 102°
2026-04-29 08:27 -31.68924 114.55983 22658 ft 500 kts 102°
2026-04-29 08:27 -31.69617 114.59951 21699 ft 492 kts 102°
2026-04-29 08:27 -31.70297 114.63853 20853 ft 482 kts 101°
2026-04-29 08:27 -31.70965 114.67676 20026 ft 473 kts 101°
2026-04-29 08:28 -31.71608 114.71412 19287 ft 462 kts 101°
2026-04-29 08:28 -31.72238 114.75074 18525 ft 452 kts 101°
2026-04-29 08:28 -31.72846 114.78608 17691 ft 443 kts 101°
2026-04-29 08:28 -31.73451 114.82114 16863 ft 434 kts 101°
2026-04-29 08:29 -31.74046 114.85558 16090 ft 425 kts 101°
2026-04-29 08:29 -31.74625 114.88924 15379 ft 416 kts 101°
2026-04-29 08:29 -31.75199 114.92218 14699 ft 408 kts 101°
2026-04-29 08:29 -31.75759 114.95457 14038 ft 400 kts 100°
2026-04-29 08:30 -31.76302 114.98640 13419 ft 395 kts 100°
2026-04-29 08:30 -31.77377 115.04952 13009 ft 387 kts 100°
2026-04-29 08:30 -31.77897 115.08017 12427 ft 378 kts 101°
2026-04-29 08:31 -31.78400 115.10995 12080 ft 365 kts 100°
2026-04-29 08:31 -31.78883 115.13866 11798 ft 351 kts 101°
2026-04-29 08:31 -31.79352 115.16630 11553 ft 338 kts 101°
2026-04-29 08:31 -31.79799 115.19285 11358 ft 325 kts 101°
2026-04-29 08:32 -31.80230 115.21845 11121 ft 315 kts 101°
2026-04-29 08:32 -31.80661 115.24373 10646 ft 315 kts 101°
2026-04-29 08:32 -31.81090 115.26892 10212 ft 313 kts 102°
2026-04-29 08:32 -31.81628 115.29363 9773 ft 311 kts 105°
2026-04-29 08:33 -31.82202 115.31809 9348 ft 308 kts 105°
2026-04-29 08:33 -31.82771 115.34199 8914 ft 306 kts 106°
2026-04-29 08:33 -31.83346 115.36599 8495 ft 303 kts 106°
2026-04-29 08:33 -31.83910 115.38974 8070 ft 301 kts 105°
2026-04-29 08:34 -31.84467 115.41332 7683 ft 298 kts 105°
2026-04-29 08:34 -31.85018 115.43686 7207 ft 299 kts 105°
2026-04-29 08:34 -31.85550 115.46027 6880 ft 294 kts 105°
2026-04-29 08:34 -31.86078 115.48338 6497 ft 291 kts 105°
2026-04-29 08:35 -31.86606 115.50621 6098 ft 288 kts 105°
2026-04-29 08:35 -31.87045 115.52920 5705 ft 287 kts 96°
2026-04-29 08:35 -31.87044 115.55243 5459 ft 283 kts 87°
2026-04-29 08:35 -31.86937 115.57533 5263 ft 278 kts 87°
2026-04-29 08:36 -31.86835 115.59780 5076 ft 273 kts 87°
2026-04-29 08:36 -31.86734 115.61984 4896 ft 267 kts 87°
2026-04-29 08:36 -31.86638 115.64147 4723 ft 262 kts 87°
2026-04-29 08:36 -31.86548 115.66276 4558 ft 258 kts 85°
2026-04-29 08:37 -31.86458 115.68384 4385 ft 258 kts 85°
2026-04-29 08:37 -31.86366 115.70473 4222 ft 253 kts 85°
2026-04-29 08:37 -31.86277 115.72517 3982 ft 248 kts 86°
2026-04-29 08:37 -31.86187 115.74546 3618 ft 249 kts 86°
2026-04-29 08:38 -31.86099 115.76582 3241 ft 250 kts 86°
2026-04-29 08:38 -31.86008 115.78627 2847 ft 251 kts 87°
2026-04-29 08:38 -31.85836 115.80674 2515 ft 250 kts 76°
2026-04-29 08:38 -31.85008 115.82388 2434 ft 237 kts 46°
2026-04-29 08:39 -31.83844 115.83654 2414 ft 220 kts 43°
2026-04-29 08:39 -31.82815 115.84922 2433 ft 208 kts 49°
2026-04-29 08:39 -31.81944 115.86266 2443 ft 206 kts 56°
2026-04-29 08:39 -31.81205 115.87702 2453 ft 204 kts 62°
2026-04-29 08:40 -31.80600 115.89217 2461 ft 204 kts 68°
2026-04-29 08:40 -31.80129 115.90764 2467 ft 196 kts 73°
2026-04-29 08:40 -31.79810 115.92292 2499 ft 194 kts 79°
2026-04-29 08:40 -31.79597 115.93879 2481 ft 195 kts 84°
2026-04-29 08:41 -31.79505 115.95444 2466 ft 195 kts 89°
2026-04-29 08:41 -31.79523 115.97036 2458 ft 194 kts 94°
2026-04-29 08:41 -31.79947 115.98504 2442 ft 192 kts 129°
2026-04-29 08:41 -31.80960 115.99472 2451 ft 187 kts 153°
2026-04-29 08:42 -31.82177 115.99956 2440 ft 182 kts 178°
2026-04-29 08:42 -31.83381 115.99722 2238 ft 169 kts 198°
2026-04-29 08:42 -31.84443 115.99343 2101 ft 147 kts 198°
2026-04-29 08:42 -31.85340 115.99051 1832 ft 125 kts 196°
2026-04-29 08:43 -31.86172 115.98801 1489 ft 123 kts 195°
2026-04-29 08:43 -31.87003 115.98556 1218 ft 123 kts 195°
2026-04-29 08:43 -31.87834 115.98313 1049 ft 123 kts 196°
2026-04-29 08:43 -31.88661 115.98071 899 ft 123 kts 196°
2026-04-29 08:44 -31.89484 115.97833 753 ft 121 kts 198°
2026-04-29 08:44 -31.90302 115.97594 610 ft 123 kts 197°
2026-04-29 08:44 -31.91129 115.97362 423 ft 120 kts 197°
2026-04-29 08:44 -31.91952 115.97118 297 ft 124 kts 198°
2026-04-29 08:45 -31.92768 115.96875 142 ft 122 kts 197°
2026-04-29 08:45 -31.93573 115.96646 69 ft 112 kts 197°
2026-04-29 08:45 -31.94163 115.96469 71 ft 62 kts 193°
2026-04-29 08:45 -31.94388 115.96404 69 ft 21 kts 165°
2026-04-29 08:46 -31.94475 115.96518 73 ft 18 kts 106°
2026-04-29 08:46 -31.94498 115.96672 70 ft 21 kts 66°
2026-04-29 08:46 -31.94377 115.96754 70 ft 20 kts 12°
2026-04-29 08:46 -31.94234 115.96795 71 ft 22 kts 14°
2026-04-29 08:47 -31.94083 115.96841 70 ft 18 kts 15°
2026-04-29 08:47 -31.93968 115.96876 68 ft 12 kts 14°
2026-04-29 08:47 -31.93917 115.96949 68 ft 15 kts 95°
2026-04-29 08:47 -31.93929 115.97032 68 ft 12 kts 101°
2026-04-29 08:48 -31.93952 115.97137 67 ft 15 kts 107°
2026-04-29 08:48 -31.93940 115.97265 71 ft 18 kts 64°
2026-04-29 08:48 -31.93908 115.97362 73 ft 13 kts 89°
2026-04-29 08:48 -31.93913 115.97473 66 ft 13 kts 94°
2026-04-29 08:49 -31.93918 115.97554 69 ft 9 kts 95°
2026-04-29 08:49 -31.93957 115.97600 73 ft 7 kts 177°
2026-04-29 08:49 -31.93995 115.97593 65 ft 3 kts 192°
2026-04-29 08:49 -31.94003 115.97590 68 ft 0 kts 193°